EW2785 Weather Reports


Display with metric or nautical units.
time (UTC)temp
F
wind
direction
speed
MPH
gust
MPH
rain 1hr
in
rain 24hr
in
rain mn
in
humidity
%
barometer
mb
20260506044554 57 61 0.0 0.0 0.06 0.10 0.02 91 1008.2
20260506043046 57 61 0.0 0.0 0.05 0.09 0.01 91 1008.1
20260506041550 58 61 0.0 1.0 0.05 0.09 0.01 91 1007.7
20260506040043 57 61 0.0 0.0 0.03 0.07 0.07 91 1007.9
20260506034538 57 42 0.0 1.0 0.00 0.04 0.04 90 1007.7
20260506033036 57 42 0.0 0.0 0.00 0.04 0.04 90 1007.5
20260506031548 57 42 0.0 0.0 0.00 0.04 0.04 90 1007.5
20260506030036 57 42 0.0 1.0 0.00 0.04 0.04 90 1007.2
20260506024536 57 42 0.0 2.0 0.00 0.04 0.04 89 1006.9
20260506023033 58 42 0.0 0.0 0.00 0.04 0.04 89 1007.0
20260506021532 58 42 0.0 0.0 0.00 0.04 0.04 89 1007.0
20260506020031 58 42 0.0 0.0 0.00 0.04 0.04 89 1007.2
20260506014530 58 42 0.0 0.0 0.00 0.04 0.04 88 1007.1
20260506013027 58 42 0.0 1.0 0.00 0.04 0.04 87 1006.7
20260506011528 58 42 0.0 0.0 0.00 0.04 0.04 86 1006.3
20260506010026 59 42 0.0 0.0 0.00 0.04 0.04 85 1006.0
20260506004531 60 42 0.0 0.0 0.00 0.04 0.04 85 1006.0
20260506003025 61 42 0.0 0.0 0.00 0.04 0.04 85 1005.9
20260506001524 61 42 0.0 0.0 0.00 0.04 0.04 83 1005.9
20260506000024 62 42 0.0 0.0 0.00 0.04 0.04 82 1005.8
20260505234552 62 42 0.0 3.0 0.00 0.04 0.04 81 1005.7
20260505233022 63 98 0.0 2.0 0.00 0.04 0.04 79 1006.1
20260505231523 63 107 0.0 3.0 0.00 0.04 0.04 77 1006.0
20260505230023 64 169 0.0 1.0 0.00 0.04 0.04 75 1006.0
20260505224529 64 169 0.0 0.0 0.00 0.04 0.04 75 1005.7
20260505223021 64 169 0.0 3.0 0.00 0.04 0.04 74 1005.2
20260505221521 64 119 1.0 3.0 0.00 0.04 0.04 73 1005.1
20260505220020 64 179 1.0 10.0 0.01 0.04 0.04 76 1005.5
20260505214523 64 163 1.0 4.0 0.01 0.04 0.04 82 1005.6
20260505213018 64 180 1.0 5.0 0.01 0.04 0.04 84 1005.3
20260505211518 64 199 0.0 3.0 0.01 0.04 0.04 84 1004.8
20260505210020 64 16 0.0 1.0 0.01 0.03 0.03 84 1004.1
20260505204524 63 16 1.0 5.0 0.03 0.03 0.03 83 1003.8
20260505203017 63 67 2.0 4.0 0.03 0.03 0.03 83 1005.1
20260505201517 64 178 0.0 6.0 0.03 0.03 0.03 76 1005.0
20260505200023 68 204 3.0 15.0 0.02 0.02 0.02 69 1004.6
20260505194514 76 233 2.0 19.0 0.00 0.00 0.00 44 1002.5
20260505193013 77 196 8.0 23.0 0.00 0.00 0.00 38 1001.9
20260505191513 77 109 4.0 10.0 0.00 0.00 0.00 39 1001.7
20260505190013 78 142 5.0 13.0 0.00 0.00 0.00 39 1001.6
20260505184521 78 159 5.0 20.0 0.00 0.00 0.00 38 1001.8
20260505183031 80 119 4.0 11.0 0.00 0.00 0.00 39 1002.0
20260505181508 80 184 4.0 14.0 0.00 0.00 0.00 38 1002.3
20260505180006 79 146 4.0 13.0 0.00 0.00 0.00 39 1002.3
20260505174504 79 169 8.0 24.0 0.00 0.00 0.00 39 1002.7
20260505173004 78 196 5.0 16.0 0.00 0.00 0.00 40 1002.9
20260505171600 78 230 5.0 20.0 0.00 0.00 0.00 40 1003.0
20260505170101 77 130 4.0 17.0 0.00 0.00 0.00 41 1003.4
20260505164618 77 188 3.0 13.0 0.00 0.00 0.00 42 1003.8
20260505163053 77 95 3.0 11.0 0.00 0.00 0.00 44 1003.8
20260505161553 76 117 4.0 14.0 0.00 0.00 0.00 46 1004.1
20260505153045 70 82 2.0 13.0 0.00 0.00 0.00 52 1004.5
20260505151536 69 123 3.0 12.0 0.00 0.00 0.00 55 1005.0
20260505124521 65 80 1.0 4.0 0.00 0.00 0.00 61 1006.0
20260505123017 64 126 0.0 3.0 0.00 0.00 0.00 61 1005.9
20260505121513 63 72 3.0 7.0 0.00 0.00 0.00 63 1005.9
20260505120009 59 134 1.0 4.0 0.00 0.00 0.00 72 1006.1
20260505114506 54 180 0.0 1.0 0.00 0.00 0.00 82 1006.1
20260505113059 52 149 0.0 1.0 0.00 0.00 0.00 87 1006.0
20260505111556 51 150 0.0 0.0 0.00 0.00 0.00 88 1006.2
20260505110104 50 150 0.0 0.0 0.00 0.00 0.00 87 1006.4
20260505101546 48 140 0.0 0.0 0.00 0.00 0.00 88 1005.8
20260505100047 47 140 0.0 1.0 0.00 0.00 0.00 88 1005.7
20260505094543 47 140 0.0 0.0 0.00 0.00 0.00 88 1005.7
20260505093041 46 213 0.0 1.0 0.00 0.00 0.00 88 1005.9
20260505091540 46 214 0.0 2.0 0.00 0.00 0.00 88 1005.8
20260505090041 45 209 0.0 3.0 0.00 0.00 0.00 88 1005.9
20260505084546 45 233 0.0 2.0 0.00 0.00 0.00 88 1006.0
20260505083038 44 287 0.0 2.0 0.00 0.00 0.00 88 1006.0
20260505081538 44 287 0.0 1.0 0.00 0.00 0.00 88 1006.1
20260505080038 44 287 0.0 2.0 0.00 0.00 0.00 87 1005.8
20260505074538 44 282 1.0 3.0 0.00 0.00 0.00 87 1006.0
20260505073042 44 288 0.0 2.0 0.00 0.00 0.00 87 1005.9
20260505071534 44 288 0.0 2.0 0.00 0.00 0.00 88 1006.1
20260505070040 44 295 0.0 4.0 0.00 0.00 0.00 88 1006.2
20260505064533 43 348 0.0 2.0 0.00 0.00 0.00 87 1006.2
20260505063030 43 35 0.0 3.0 0.00 0.00 0.00 87 1006.2
20260505061537 43 275 0.0 2.0 0.00 0.00 0.00 87 1006.2
20260505060027 43 250 0.0 3.0 0.00 0.00 0.00 86 1006.3
20260505054533 44 194 0.0 2.0 0.00 0.00 0.00 85 1006.3
20260505053022 44 188 0.0 1.0 0.00 0.00 0.00 85 1006.3
20260505051524 44 188 0.0 0.0 0.00 0.00 0.00 84 1006.5